Location: Hilton Head Island
(32.2163°N, 80.7526°W)
Time: 17:24:11
(UTC-04:00)

Transit 2A Rocket - Pass Details

Date: 11 February 2026
Orbit: 583 x 900 km, 66.7° (Epoch: 8 March)

Event Time Altitude Azimuth Distance (km) Brightness Sun altitude
Rises 02:42:23 0° 343° (NNW) 3,345 - -56.1°
Reaches altitude 10° 02:45:08 10° 352° (N) 2,359 - -55.6°
Maximum altitude 02:50:01 35° 57° (ENE) 1,198 - -54.7°
Drops below altitude 10° 02:54:30 10° 123° (ESE) 2,153 - -53.8°
Sets 02:56:54 0° 132° (SE) 3,014 - -53.3°
